Location: Warszawa
(52.2500°N, 21.0000°E)
Time: 18:20:32
(UTC+01:00)

A-11 Canister half - All Passes

Search period start: 30 January 2023 00:00
Search period end: 09 February 2023 00:00
Orbit: 1514 x 1686 km, 47.2° (Epoch: 29 January)

Date Brightness Start Highest point End Pass type
(mag) Time Alt. Az. Time Alt. Az. Time Alt. Az.
30 Jan - 10:56:46 10° SSW 11:04:38 30° SE 11:12:19 10° E daylight
30 Jan - 12:58:57 10° WSW 13:08:12 57° SSE 13:17:12 10° E daylight
30 Jan - 15:03:11 10° W 15:12:28 65° S 15:21:33 10° ESE daylight
30 Jan - 17:07:50 10° W 17:16:26 44° SSW 17:24:57 10° SE visible
30 Jan - 19:13:59 10° W 19:19:20 17° SW 19:24:42 10° SSW visible
31 Jan - 10:34:04 10° SSW 10:41:48 28° SE 10:49:20 10° E daylight
31 Jan - 12:36:05 10° SW 12:45:19 55° SSE 12:54:18 10° E daylight
31 Jan - 14:40:14 10° W 14:49:33 65° S 14:58:40 10° ESE daylight
31 Jan - 16:44:54 10° W 16:53:35 45° SSW 17:02:09 10° SE visible
31 Jan - 18:50:50 10° W 18:56:32 18° SW 19:02:15 10° S visible
01 Feb - 10:11:23 10° S 10:18:58 27° SE 10:26:21 10° E daylight
01 Feb - 12:13:11 10° SW 12:22:25 54° SSE 12:31:23 10° E daylight
01 Feb - 14:17:18 10° W 14:26:39 66° S 14:35:47 10° ESE daylight
01 Feb - 16:21:57 10° W 16:30:43 47° SSW 16:39:21 10° SE daylight
01 Feb - 18:27:42 10° W 18:33:45 20° SW 18:39:45 10° S visible
02 Feb - 09:48:43 10° S 09:56:08 25° SE 10:03:22 10° E daylight
02 Feb - 11:50:18 10° SW 11:59:32 53° SSE 12:08:30 10° E daylight
02 Feb - 13:54:22 10° W 14:03:45 66° S 14:12:53 10° ESE daylight
02 Feb - 15:59:00 10° W 16:07:51 48° SSW 16:16:32 10° SE daylight
02 Feb - 18:04:37 10° W 18:10:56 21° SW 18:17:14 10° S visible
03 Feb - 09:26:03 10° S 09:33:17 24° SE 09:40:22 10° E daylight
03 Feb - 11:27:25 10° SW 11:36:39 51° SSE 11:45:35 10° E daylight
03 Feb - 13:31:25 10° W 13:40:51 66° S 13:50:00 10° ESE daylight
03 Feb - 15:36:04 10° W 15:44:59 50° SSW 15:53:43 10° SE daylight
03 Feb - 17:41:33 10° W 17:48:09 22° SW 17:54:42 10° S visible
04 Feb - 09:03:26 10° S 09:10:28 23° SE 09:17:20 10° E daylight
04 Feb - 11:04:33 10° SW 11:13:45 50° SSE 11:22:40 10° E daylight
04 Feb - 13:08:29 10° WSW 13:17:56 66° S 13:27:06 10° E daylight
04 Feb - 15:13:07 10° W 15:22:06 51° SSW 15:30:54 10° SE daylight
04 Feb - 17:18:29 10° W 17:25:20 24° SW 17:32:08 10° S visible
05 Feb - 08:40:50 10° S 08:47:38 22° SE 08:54:17 10° E daylight
05 Feb - 10:41:42 10° SW 10:50:52 49° SSE 10:59:45 10° E daylight
05 Feb - 12:45:33 10° WSW 12:55:01 66° S 13:04:12 10° E daylight
05 Feb - 14:50:10 10° W 14:59:14 53° SSW 15:08:05 10° SE daylight
05 Feb - 16:55:27 10° W 17:02:31 25° SW 17:09:31 10° S visible
06 Feb - 08:18:15 10° S 08:24:49 20° SE 08:31:14 10° E daylight
06 Feb - 10:18:49 10° SW 10:27:59 47° SSE 10:36:51 10° E daylight
06 Feb - 12:22:36 10° WSW 12:32:07 66° S 12:41:19 10° E daylight
06 Feb - 14:27:13 10° W 14:36:21 54° SSW 14:45:14 10° SE daylight
06 Feb - 16:32:26 10° W 16:39:42 26° SW 16:46:54 10° S daylight
07 Feb - 07:55:43 10° S 08:01:59 19° SE 08:08:08 10° E daylight
07 Feb - 09:55:59 10° SW 10:05:06 46° SSE 10:13:55 10° E daylight
07 Feb - 11:59:40 10° WSW 12:09:12 66° S 12:18:25 10° E daylight
07 Feb - 14:04:16 10° W 14:13:27 56° SSW 14:22:24 10° SE daylight
07 Feb - 16:09:24 10° W 16:16:53 28° SW 16:24:16 10° SSE daylight
08 Feb - 07:33:13 10° SSE 07:39:10 18° SE 07:45:02 10° E daylight
08 Feb - 09:33:08 10° SW 09:42:13 44° SSE 09:51:01 10° E daylight
08 Feb - 11:36:43 10° WSW 11:46:17 65° S 11:55:31 10° E daylight
08 Feb - 13:41:19 10° W 13:50:34 57° SSW 13:59:33 10° ESE daylight
08 Feb - 15:46:23 10° W 15:54:03 29° SW 16:01:37 10° SSE daylight
